Satellite-Ground Cal/Val Region Overpasses Predictions

Prediction of Satellite NPP Overpassing Cal/Val Region: PacNW

Region Location: (Latitude: 10.00, Longitude: 139.50) to (Latitude: 22.70, Longitude: 165.60).

Table of predicted overpasses for the next 14.0 days since TLE Epoch: 2/22/2019
Interval Starting Time Starting Location Ending Time Ending Location
1 02/23/2019 02:39:21 ( 10.04, 159.82) 02/23/2019 02:42:56 ( 22.67, 156.82)
2 02/23/2019 15:11:14 ( 22.66, 157.06) 02/23/2019 15:14:49 ( 10.04, 154.06)
3 02/24/2019 02:20:19 ( 10.04, 164.59) 02/24/2019 02:23:54 ( 22.66, 161.58)
4 02/24/2019 14:52:11 ( 22.67, 161.82) 02/24/2019 14:55:46 ( 10.05, 158.82)
5 02/25/2019 03:42:46 ( 10.04, 143.97) 02/25/2019 03:46:21 ( 22.66, 140.97)
6 02/25/2019 14:34:18 ( 18.63, 165.59) 02/25/2019 14:36:44 ( 10.05, 163.58)
7 02/25/2019 16:14:39 ( 22.67, 141.20) 02/25/2019 16:16:38 ( 15.68, 139.51)
8 02/26/2019 03:23:44 ( 10.04, 148.73) 02/26/2019 03:27:19 ( 22.66, 145.73)
9 02/26/2019 15:55:36 ( 22.67, 145.97) 02/26/2019 15:59:11 ( 10.05, 142.96)
10 02/27/2019 03:04:41 ( 10.03, 153.49) 02/27/2019 03:08:16 ( 22.65, 150.49)
11 02/27/2019 15:36:34 ( 22.67, 150.73) 02/27/2019 15:40:09 ( 10.05, 147.72)
12 02/28/2019 02:45:39 ( 10.03, 158.25) 02/28/2019 02:49:14 ( 22.65, 155.25)
13 02/28/2019 15:17:31 ( 22.68, 155.49) 02/28/2019 15:21:06 ( 10.06, 152.48)
14 03/01/2019 02:26:36 ( 10.02, 163.01) 03/01/2019 02:30:11 ( 22.64, 160.01)
15 03/01/2019 14:58:29 ( 22.68, 160.25) 03/01/2019 15:02:05 ( 10.00, 157.23)
16 03/02/2019 02:10:12 ( 19.30, 165.60) 03/02/2019 02:11:10 ( 22.70, 164.76)
17 03/02/2019 03:49:04 ( 10.03, 142.40) 03/02/2019 03:52:31 ( 22.18, 139.51)
18 03/02/2019 14:39:27 ( 22.69, 165.01) 03/02/2019 14:43:03 ( 10.01, 161.99)
19 03/02/2019 16:20:56 ( 22.68, 139.63) 03/02/2019 16:21:04 ( 22.21, 139.51)
20 03/03/2019 03:30:01 ( 10.02, 147.16) 03/03/2019 03:33:36 ( 22.64, 144.16)
21 03/03/2019 16:01:54 ( 22.68, 144.39) 03/03/2019 16:05:30 ( 10.00, 141.38)
22 03/04/2019 03:10:59 ( 10.02, 151.92) 03/04/2019 03:14:35 ( 22.70, 148.90)
23 03/04/2019 15:42:52 ( 22.68, 149.15) 03/04/2019 15:46:28 ( 10.00, 146.14)
24 03/05/2019 02:51:56 ( 10.01, 156.68) 03/05/2019 02:55:32 ( 22.70, 153.66)
25 03/05/2019 15:23:49 ( 22.69, 153.91) 03/05/2019 15:27:25 ( 10.01, 150.90)
26 03/06/2019 02:32:54 ( 10.01, 161.44) 03/06/2019 02:36:30 ( 22.69, 158.42)
27 03/06/2019 15:04:47 ( 22.69, 158.67) 03/06/2019 15:08:23 ( 10.01, 155.66)
28 03/07/2019 02:14:36 ( 12.65, 165.59) 03/07/2019 02:17:27 ( 22.69, 163.18)
29 03/07/2019 03:55:21 ( 10.02, 140.82) 03/07/2019 03:56:58 ( 15.72, 139.50)
30 03/07/2019 14:45:44 ( 22.69, 163.43) 03/07/2019 14:49:20 ( 10.01, 160.42)
31 03/08/2019 03:36:19 ( 10.02, 145.58) 03/08/2019 03:39:55 ( 22.70, 142.57)
32 03/08/2019 14:29:47 ( 11.84, 165.60) 03/08/2019 14:30:18 ( 10.01, 165.18)


NCC Satellite Cal/Val Overpasses Prediction Service
